STARLINK-31861, 59906

Orbit data source: Space-Track

STARLINK-31861, 59906 is a payload satellite owned by SpaceX/Seattle (US) in LEO that was launched on Tue, 28 May 2024 UTC via an FALCON 9 launch vehicle from the Air Force Eastern Test Range (AFETR). Payload-class satellites include a variety of spacecraft equipped with specific instruments for various scientific and technological missions. These include communications satellites like Starlink; space stations such as the ISS; scientific satellites like the Hubble; Earth observation satellites from companies like Planet Labs, Umbra, and HawkEye 360; GPS; miniature CubeSats for education and research; and military/defense satellites.

Loading next visibility...
Identifier
59906, 2024-100X
Orbit
LEO
Country
Flag of USUS
Related business
Manufacturer
SpaceX/Seattle
Mission
Operational Commercial Communications
Bus & Motor
STARLINK V2M, Unknown motor
Mass
730 kg wet, ~700 kg dry
Launch date (UTC)
2024-05-28 (1 year ago)
Launch vehicle
FALCON 9
Launch site
Air Force Eastern Test Range (AFETR)
Object type
Payload
Rocket body
Debris
Shape & HBR
Box + 2 Pan, 17.7 m
Radar Cross Section
33.884 m², Large (>1 m²)

Expand to show TLE details & history
Last TLE update: 9 hours ago

TLE from 9 hours ago
0 STARLINK-31861
1 59906U 24100X   25297.65011010  .00001527  00000-0  64994-4 0  9996
2 59906  42.9983 166.5283 0000823 278.2727  81.8031 15.27581344 80420
Epoch: 2025-10-24T15:36Z
TLE epoch observation values (Epoch: 2025-10-24T15:36:09.512Z)
Latitude
-0.00004°
Longitude
-100.80335°
Altitude
482.74 km
Speed
7.626 km/s
True Right ascension
11h 06m 06s
True Declination
0° 00' 00"
Sunlit
Object was in daylight at epoch
Visualization orbit readout
Latitude
Unknown
Longitude
Unknown
Altitude
Unknown
Speed
Unknown
Apparent Right ascension
Unknown
Apparent Declination
Unknown
Sunlit
N/A
Visualization observer readout
Local Sidereal Time
19:27:47
Azimuth
Unknown
Elevation
Unknown
Doppler factor
Unknown
Orbital elements
Apogee altitude
485.555 km
Perigee altitude
484.426 km
Semi-major axis
6,863.128 km
Eccentricity
0.00008
Inclination
42.9983°
RAAN
166.5283°
Arg. of periapsis
278.2727°
True anomaly
81.81243°
Mean anomaly
81.8031°
Eccentric anomaly
81.80777°
Mean motion
3.81733 °/min
Orbital period
94.31 mins
BSTAR
0.000064994
Loading maneuver chart data...
Computing Atmospheric mass density...
Loading historical data...
Loading historical data...
Loading historical data...
Loading historical data...
Loading historical data...
Loading historical data...
Loading historical data...

Documentation

Showing up to 5 results
|